Weather History for CWZA - November, 2012

Change the Weather History Date:

Saturday, November 3, 2012

  Actual Average Record
Temperature  
Mean Temperature 52 °F -  
Max Temperature 55 °F - - ()
Min Temperature 48 °F - - ()
Degree Days  
Heating Degree Days 14    
Growing Degree Days 2 (Base 50)    
Moisture  
Dew Point 51 °F    
Average Humidity 98    
Maximum Humidity 100    
Minimum Humidity 91    
Precipitation  
Precipitation 0.71 in - - ()
Sea Level Pressure  
Sea Level Pressure 30.01 in    
Wind  
Wind Speed 1 mph ()    
Max Wind Speed 5 mph    
Max Gust Speed -    
T = Trace of Precipitation, MM = Missing Value Source: Averaged Metar Reports

Daily Weather History Graph

Daily Weather History Graph

Search for Another Location

Airport or City:

Trip Planner

Search our weather history database for the weather conditions in past years. The results will help you decide how hot, cold, wet, or windy it might be!

Date:

Astronomy

Nov. 03, 2012 Rise Set
Actual Time 7:59 AM PDT 5:41 PM PDT
Civil Twilight 7:25 AM PDT 6:15 PM PDT
Nautical Twilight 6:47 AM PDT 6:52 PM PDT
Astronomical Twilight 6:10 AM PDT 7:29 PM PDT
Moon 9:19 PM PDT (11/3) 12:16 PM PDT (11/3)
Length of Visible Light 10h 49m
Length of Day
9h 42m
Waning Gibbous, 79% of the Moon is Illuminated
Nov 3
Waning Gibbous
Nov 6
Last Quarter
Nov 13
New
Nov 20
First Quarter
Nov 28
Full

Hourly Weather History & Observations

Time (PDT) Temp. Dew Point Humidity Pressure Visibility Wind Dir Wind Speed Gust Speed Precip Events Conditions
12:00 AM 50.7 °F 50.2 °F 98% 29.96 in - Calm Calm - N/A   Unknown
1:00 AM 50.5 °F 50.0 °F 98% 29.95 in - Calm Calm - N/A   Unknown
4:00 AM 50.0 °F 49.6 °F 99% 29.96 in - WNW 1.2 mph - 0.03 in   Unknown
5:00 AM 50 °F 49 °F 97% 29.97 in - Calm Calm - -  
5:00 AM 49.8 °F 49.5 °F 99% 29.97 in - Calm Calm - N/A   Unknown
6:00 AM 49.3 °F 48.9 °F 99% 29.96 in - East 1.2 mph - N/A   Unknown
7:00 AM 48.7 °F 48.4 °F 99% 29.95 in - West 1.2 mph - N/A   Unknown
8:00 AM 49.1 °F 48.9 °F 99% 29.97 in - South 1.2 mph - N/A   Unknown
9:00 AM 49.6 °F 49.5 °F 99% 29.99 in - SW 1.2 mph - 0.01 in   Unknown
10:00 AM 50.0 °F 49.8 °F 99% 29.99 in - NNW 2.3 mph - 0.05 in   Unknown
11:00 AM 51 °F 50 °F 97% 29.98 in - WNW 1.2 mph - -  
11:00 AM 50.7 °F 50.4 °F 99% 29.98 in - WNW 1.2 mph - 0.05 in   Unknown
12:00 PM 51.1 °F 50.7 °F 99% 29.98 in - West 1.2 mph - 0.04 in   Unknown
1:00 PM 51.4 °F 51.1 °F 99% 29.98 in - SSE 1.2 mph - 0.05 in   Unknown
2:00 PM 51.6 °F 51.3 °F 99% 30.00 in - SE 1.2 mph - 0.13 in   Unknown
3:00 PM 52.7 °F 52.3 °F 99% 30.00 in - ESE 2.3 mph - 0.11 in   Unknown
4:00 PM 53.6 °F 53.1 °F 98% 30.01 in - Calm Calm - 0.21 in   Unknown
5:00 PM 54 °F 54 °F 100% 30.02 in - SSE 2.3 mph - -  
5:00 PM 54.5 °F 54.0 °F 98% 30.02 in - SSE 2.3 mph - 0.16 in   Unknown
6:00 PM 54.7 °F 54.0 °F 97% 30.03 in - SW 1.2 mph - 0.09 in   Unknown
7:00 PM 54.5 °F 53.8 °F 97% 30.04 in - North 1.2 mph - N/A   Unknown
8:00 PM 54.5 °F 54.0 °F 98% 30.06 in - Calm Calm - N/A   Unknown
9:00 PM 55.2 °F 53.8 °F 95% 30.09 in - East 2.3 mph - N/A   Unknown
10:00 PM 55.0 °F 52.3 °F 91% 30.13 in - NNW 4.6 mph - 0.01 in   Unknown
11:00 PM 53 °F 52 °F 94% 30.17 in - East 2.3 mph - -  
11:00 PM 53.2 °F 51.8 °F 95% 30.17 in - East 2.3 mph - 0.06 in   Unknown